Showing default

GSAT 11, 43824

Orbit data source: Space-Track

GSAT 11, 43824 is a payload satellite owned by ISRO (IN) in GEO that was launched on Tue, 04 Dec 2018 UTC via an ARIANE 5ECA launch vehicle from the French Guiana (FRGUI). Payload-class satellites include a variety of spacecraft equipped with specific instruments for various scientific and technological missions. These include communications satellites like Starlink; space stations such as the ISS; scientific satellites like the Hubble; Earth observation satellites from companies like Planet Labs, Umbra, and HawkEye 360; GPS; miniature CubeSats for education and research; and military/defense satellites.

Not visible in the next 10 days
Identifier
43824, 2018-100B
Orbit
GEO
Country
Flag of ININ / IND
Related business
Manufacturer
ISRO SAC/Banga
Mission
Operational Civil Communications
Bus & Motor
I6K, ISRO LAM?
Mass
5,855 kg wet, ~3,000 kg dry
Launch date (UTC)
2018-12-04 (8 years ago)
Launch vehicle
ARIANE 5ECA
Launch site
French Guiana (FRGUI)
Object type
Payload
Rocket body
Debris
Shape & HBR
Box + 2 Pan, 10.0 m
Radar Cross Section
21.671 m², Large (>1 m²)

Expand to show TLE details & history
Last TLE update: 2 days ago

TLE from 2 days ago
0 GSAT 11
1 43824U 18100B   26171.40667204 -.00000082  00000-0  00000+0 0  9997
2 43824   0.0485 257.0358 0007812 192.2265  39.7563  1.00272475 27511
Epoch: 2026-06-20T09:45Z
TLE epoch observation values (Epoch: 2026-06-20T09:45:36.464Z)
Latitude
-0.01942°
Longitude
74.06471°
Altitude
35,760.484 km
Speed
3.077 km/s
True Right ascension
08h 36m 21s
True Declination
0° 01' 10"
Sunlit
Object was in daylight at epoch
Visualization orbit readout
Latitude
Unknown
Longitude
Unknown
Altitude
Unknown
Speed
Unknown
Apparent Right ascension
Unknown
Apparent Declination
Unknown
Sunlit
N/A
Visualization observer readout
Local Sidereal Time
21:25:54
Azimuth
Unknown
Elevation
Unknown
Doppler factor
Unknown
Orbital elements
Apogee altitude
35,820.412 km
Perigee altitude
35,754.532 km
Semi-major axis
42,165.609 km
Eccentricity
0.00078
Inclination
0.0485°
RAAN
257.0358°
Arg. of periapsis
192.2265°
True anomaly
39.81359°
Mean anomaly
39.7563°
Eccentric anomaly
39.78494°
Mean motion
0.25067 °/min
Orbital period
1,436.14 mins
BSTAR
0
Loading maneuver chart data...
Computing Atmospheric mass density...
Loading historical data...
Loading historical data...
Loading historical data...
Loading historical data...
Loading historical data...
Loading historical data...
Loading historical data...
Other satellites on launch #100 in the year 2018 (2018-12-04 UTC)

Documentation

Showing up to 5 results
|